Location: Diebersbach
(48.5163°N, 8.0558°E)
Time: 00:41:49
(UTC+00:00)

Cosmos 1825 - Pass Details

Date: 29 October 2021
Orbit: 501 x 504 km, 82.5° (Epoch: 01 December)

Event Time Altitude Azimuth Distance (km) Brightness Sun altitude
Rises 17:55:02 0° 350° (N) 2,611 5.9 -17.4°
Reaches altitude 10° 17:57:09 10° 352° (N) 1,722 4.9 -17.7°
Maximum altitude 18:00:56 85° 79° (ENE) 512 2.0 -18.4°
Drops below altitude 10° 18:04:41 10° 170° (S) 1,709 4.7 -19.0°
Sets 18:06:47 0° 171° (S) 2,588 5.7 -19.3°
